Regional Weather Roundup
Issued by NWS

Home | Current Version | Previous Version | Graphics & Text | Print | Product List | Glossary On
Versions: 1 2 3 4 5 6 7 8 9 10 11 12 13 14 15 16 17 18 19 20 21 22 23 24 25 26 27 28 29 30 31 32 33 34 35 36 37 38 39 40 41 42 43 44 45 46 47 48 49 50
413
ASUS43 KLMK 281210
RWRKY
KENTUCKY REGIONAL WEATHER ROUNDUP
NATIONAL WEATHER SERVICE LOUISVILLE KY
800 AM EDT WED JUN 28 2017

NOTE "FAIR" INDICATES FEW OR NO CLOUDS BELOW 12,000 FEET
WITH NO SIGNIFICANT WEATHER AND/OR OBSTRUCTIONS TO VISIBILITY.

KYZ001>023-026-027-061>063-070>075-281300-
WESTERN AND SOUTH CENTRAL KENTUCKY

CITY           SKY/WX    TMP DP  RH WIND       PRES   REMARKS
PADUCAH        SUNNY     66  57  72 S7        30.06F
HENDERSON      SUNNY     63  55  75 SE7       30.09F
OWENSBORO      SUNNY     64  56  75 SE5       30.11S
HOPKINSVILLE   SUNNY     62  57  83 SE6       30.11S
BOWLING GREEN  SUNNY     61  58  90 CALM      30.14R
GLASGOW        SUNNY     60  57  89 CALM      30.16R
$$

KYZ024-025-028>034-038-045-046-053-281300-
NORTH CENTRAL KENTUCKY

CITY           SKY/WX    TMP DP  RH WIND       PRES   REMARKS
LOUISVILLE/SDF PTSUNNY   62  53  72 SE3       30.15R
LOUISVILLE/LOU SUNNY     62  53  72 SE3       30.16R
FORT KNOX      SUNNY     60  55  83 CALM      30.13S
$$

KYZ035>037-039>044-047>052-055>060-089>105-281300-
NORTHEAST KENTUCKY

CITY           SKY/WX    TMP DP  RH WIND       PRES   REMARKS
LEXINGTON      SUNNY     60  52  74 S5        30.18R
COVINGTON      PTSUNNY   63  52  67 CALM      30.16S
FRANKFORT      SUNNY     60  52  74 SE6       30.15R
$$

KYZ054-064>069-076>088-106>120-281300-
SOUTHEAST KENTUCKY

CITY           SKY/WX    TMP DP  RH WIND       PRES   REMARKS
JACKSON        SUNNY     58  51  78 CALM      30.19R
LONDON         SUNNY     57  52  83 CALM      30.18R
SOMERSET       SUNNY     55  54  94 CALM      30.20R
MIDDLESBORO    SUNNY     53  51  94 CALM      30.21R
MONTICELLO     SUNNY     60  56  86 W9        30.19R
$$





USA.gov is the U.S. government's official web portal to all federal, state and local government web resources and services.